Flag for Uruguay Weather past 2 weeks in Maldonado, Uruguay

Now
63 °F

Sunny.


Feels Like: 63 °F
Forecast: 46 / 62 °F
Wind: 12 mph from Northeast

Location: Capitan Corbeta

Current Time: Jul 31, 2014 at 1:31:09 PM

Latest Report: Jul 31, 2014 at 1:00 PM


Visibility: 10 mi

Pressure: 29.95 "Hg

Humidity: 77%

Dew point: 55 °F

Location of MaldonadoLocation

Historic Weather in Maldonado — Graph

°F

Maldonado temperature yesterday

Maximum temperature yesterday: 66 °F (at 1:00 PM)
Minimum temperature yesterday: 45 °F (at 10:00 PM)
Average temperature yesterday: 57 °F

Past Weeks' High & Low Weather Summary

 TemperatureHumidityPressure
High70 °F (Jul 21, 1:00 PM)100% (Jul 19, 10:00 PM)30.42 "Hg (Jul 19, 10:00 PM)
Low30 °F (Jul 27, 6:00 AM)41% (Jul 27, 2:00 PM)29.77 "Hg (Jul 22, 1:00 PM)
Average51 °F75%30.12 "Hg
* Reported Jul 16 12:00 Noon — Jul 31 12:00 Noon, Maldonado, Weather by CustomWeather, © 2014

Note: Actual official high and low records may vary slightly from our data, if they occured in-between our weather recording intervals... More about our weather records

Advertising

Maldonado weather history for previous 24 hours

 ConditionsComfort  
Time TempWeatherWind HumidityBarometerVisibility
12:00 PM
Jul 31
61 °FPartly sunny.12 mph72%29.98 "HgN/A
11:00 AM57 °FPartly sunny.12 mph77%30.01 "HgN/A
10:00 AM54 °FSunny.8 mph77%30.04 "Hg10 mi
9:00 AM50 °FSunny.6 mph82%30.04 "Hg10 mi
8:00 AM50 °FSunny.6 mph88%30.04 "Hg10 mi
7:00 AM48 °FSunny.5 mph94%30.04 "Hg10 mi
6:00 AM48 °FClear.8 mph94%30.04 "Hg10 mi
5:00 AM46 °FClear.6 mph93%30.04 "Hg10 mi
4:00 AM46 °FClear.3 mph93%30.07 "Hg10 mi
3:00 AM46 °FClear.6 mph93%30.07 "Hg10 mi
2:00 AM45 °FClear.3 mph93%30.07 "Hg10 mi
1:00 AM45 °FClear.3 mph93%30.09 "Hg10 mi
12:00 AM43 °FClear.5 mph93%30.09 "Hg10 mi
11:00 PM
Jul 30
45 °FClear.No wind87%30.09 "Hg10 mi
10:00 PM45 °FClear.3 mph87%30.09 "Hg10 mi
9:00 PM48 °FClear.5 mph87%30.12 "Hg10 mi
8:00 PM48 °FClear.No wind76%30.09 "Hg10 mi
7:00 PM46 °FClear.No wind76%30.09 "Hg10 mi
6:00 PM54 °FPassing clouds.5 mph72%30.07 "HgN/A
5:00 PM59 °FClear.6 mph59%30.09 "Hg10 mi
4:00 PM59 °FSunny.12 mph63%30.07 "Hg10 mi
3:00 PM61 °FScattered clouds.9 mph63%30.07 "HgN/A
2:00 PM63 °FSunny.9 mph52%30.09 "Hg10 mi
1:00 PM66 °FPartly sunny.No wind83%30.12 "Hg6 mi
Weather by CustomWeather, © 2014

See weather overviewHow to use our weather pages